Regional Weather Roundup
Issued by NWS Cleveland, OH

Home | Current Version | Previous Version | Graphics & Text | Print | Product List | Glossary On
Versions: 1 2 3 4 5 6 7 8 9 10 11 12 13 14 15 16 17 18 19 20 21 22 23 24 25 26 27 28 29 30 31 32 33 34 35 36 37 38 39 40 41 42 43 44 45 46 47 48 49 50
000
ASUS41 KCLE 241002
RWRCLE
OHIO REGIONAL WEATHER ROUNDUP
NATIONAL WEATHER SERVICE CLEVELAND, OH
600 AM EDT SAT JUN 24 2017

NOTE: "FAIR" INDICATES FEW OR NO CLOUDS BELOW 12,000 FEET WITH NO
SIGNIFICANT WEATHER AND/OR OBSTRUCTIONS TO VISIBILITY.

OHZ001>008-015>018-024>027-034-035-043-044-241100-
   NORTHWEST OHIO

CITY           SKY/WX    TMP DP  RH WIND       PRES   REMARKS
DEFIANCE       PTCLDY    60  54  80 W5        29.84R
FINDLAY        CLEAR     62  54  74 W9        29.83R
TOLEDO EXPRESS PTCLDY    58  55  90 W7        29.81R
TOLEDO EXEC    CLEAR     61  55  81 W7        29.82R
LIMA           CLEAR     61  57  87 W9        29.85
$$

OHZ009>014-019>023-028>033-038-089-241100-
   NORTHEAST OHIO

CITY           SKY/WX    TMP DP  RH WIND       PRES   REMARKS
CLE-HOPKINS    PTCLDY    64  57  78 SW6       29.82R
CLE-LAKEFRONT  CLEAR     65  60  84 SW10      29.78R
CUY CO. ARPT   NOT AVBL
LORAIN-ELYRIA  PTCLDY    60  51  72 W6        29.81R
ASHTABULA      PTCLDY    61  60  97 W5        29.79R
AKRON-CANTON   PTCLDY    63  58  83 W6        29.83R
WOOSTER        CLEAR     61  56  83 W9        29.84R
MANSFIELD      CLEAR     59  54  83 SW8       29.84R
YOUNGSTOWN     PTCLDY    63  61  93 W7        29.80R FOG
$$

OHZ042-051>053-060>062-070>072-077>081-241100-
  SOUTHWEST OHIO

CITY           SKY/WX    TMP DP  RH WIND       PRES   REMARKS
CINC-COVINGTON PTCLDY    62  62 100 W5        29.91R
CINC-LUNKEN    FOG       61  61 100 CALM      29.91R VSB 1/4
HAMILTON       CLEAR     63  63 100 W5        29.91R
DAYTON         PTCLDY    62  59  90 W12       29.89R
WRIGHT-PAT AFB CLEAR     59  59 100 CALM      29.88R
DAYTON GENERAL CLEAR     62  60  93 SW6       29.89R
WILMINGTON     CLEAR     61  61 100 SW6       29.89R FOG
$$

OHZ036-037-039>041-045>050-054>059-063>069-073>076-082>088-241100-
  CENTRAL AND SOUTHEAST OHIO

CITY           SKY/WX    TMP DP  RH WIND       PRES   REMARKS
COLUMBUS       PTCLDY    62  62 100 S3        29.86R
OSU AIRPORT    CLEAR     61  60  97 SW7       29.86R
BOLTON FIELD   NOT AVBL
RICKENBACK AFB CLEAR     60  60 100 SW3       29.86R
NEWARK         CLEAR     61  59  93 W3        29.85R
MARION         PTCLDY    62  56  80 W6        29.85R
LANCASTER      CLEAR     62  61  96 SE3       29.87R
ZANESVILLE     CLEAR     64  62  93 SW6       29.86R
NEW PHILLY     NOT AVBL
$$




USA.gov is the U.S. government's official web portal to all federal, state and local government web resources and services.